Location: Allonne
(49.4086°N, 2.1143°E)
Time: 21:48:11
(UTC+00:00)

ATLAS 5 CENTAUR R/B - Pass Details

Date: 03 February 2023
Orbit: 460 x 1178 km, 63.3° (Epoch: 24 March)

Event Time Altitude Azimuth Distance (km) Brightness Sun altitude
Rises 18:31:51 0° 299° (WNW) 2,702 5.8 -16.7°
Reaches altitude 10° 18:34:51 10° 326° (NW) 1,924 4.5 -17.2°
Maximum altitude 18:37:16 14° 360° (N) 1,749 3.8 -17.5°
Enters shadow 18:39:08 12° 25° (NNE) 1,978 3.9 -17.8°
